This demonstration page uses our WeatherBlox Daily Observations layout. Learn more.

Left ArrowRight Arrow

39.29038, -76.61219

Hourly Observations for February 15, 2019

Temp ( °F °C ) Dew Point ( °F °C ) Humidity (%) Winds ( mph kmh ) Pressure ( in mb ) Visibility ( mi km ) Precip ( " mm )
12:54 am 00:54 undefined 44 6.7 31 -0.6 60 60 undefined N/A 29.89 1012 N/A 0.00 0.00
1:54 am 01:54 undefined 44 6.7 32 0 63 63 undefined N/A 29.86 1011 N/A 0.00 0.00
2:54 am 02:54 undefined 44 6.7 32 0 63 63 undefined N/A 29.83 1010 N/A 0.00 0.00
3:54 am 03:54 undefined 45 7.2 33 0.6 63 63 undefined N/A 29.81 1009 N/A 0.00 0.00
4:54 am 04:54 undefined 46 7.8 33 0.6 61 61 undefined N/A 29.77 1008 N/A 0.00 0.00
5:54 am 05:54 undefined 49 9.4 32 0 52 52 undefined N/A 29.77 1008 N/A 0.00 0.00
6:54 am 06:54 undefined 47 8.3 33 0.6 59 59 undefined N/A 29.76 1008 N/A 0.00 0.00
7:54 am 07:54 undefined 52 11.1 32 0 47 47 undefined N/A 29.77 1008 N/A 0.00 0.00
8:54 am 08:54 undefined 54 12.2 33 0.6 45 45 undefined N/A 29.77 1008 N/A 0.00 0.00
9:54 am 09:54 undefined 56 13.3 33 0.6 42 42 undefined N/A 29.74 1007 N/A 0.00 0.00
10:54 am 10:54 undefined 61 16.1 34 1.1 36 36 undefined N/A 29.73 1007 N/A 0.00 0.00
11:54 am 11:54 undefined 63 17.2 35 1.7 35 35 undefined N/A 29.71 1006 N/A 0.00 0.00
12:54 pm 12:54 undefined 65 18.3 35 1.7 33 33 undefined N/A 29.67 1005 N/A 0.00 0.00
1:54 pm 13:54 undefined 67 19.4 36 2.2 32 32 undefined N/A 29.63 1003 N/A 0.00 0.00
2:54 pm 14:54 undefined 67 19.4 37 2.8 33 33 undefined N/A 29.62 1003 N/A 0.00 0.00
3:54 pm 15:54 undefined 65 18.3 38 3.3 37 37 undefined N/A 29.63 1003 N/A 0.00 0.00
4:54 pm 16:54 undefined 63 17.2 38 3.3 40 40 undefined N/A 29.63 1004 N/A 0.00 0.00
5:54 pm 17:54 undefined 62 16.7 39 3.9 43 43 undefined N/A 29.65 1004 N/A 0.00 0.00
6:54 pm 18:54 undefined 61 16.1 39 3.9 44 44 undefined N/A 29.66 1005 N/A 0.00 0.00
7:54 pm 19:54 undefined 60 15.6 39 3.9 46 46 undefined N/A 29.69 1005 N/A 0.00 0.00
8:54 pm 20:54 undefined 59 15 37 2.8 44 44 undefined N/A 29.72 1007 N/A 0.00 0.00
9:54 pm 21:54 undefined 57 13.9 26 -3.3 30 30 undefined N/A 29.74 1007 N/A 0.00 0.00
10:54 pm 22:54 undefined 53 11.7 17 -8.3 24 24 undefined N/A 29.78 1008 N/A 0.00 0.00
11:54 pm 23:54 undefined 51 10.6 13 -10.6 22 22 undefined N/A 29.80 1009 N/A 0.00 0.00

Powered by AerisWeather